When you browse on this site, cookies collect data to enhance your experience and personalize the content and advertising you see.
Visit our Privacy Policy to learn more. By continuing to use the site, you agree to this use of cookies and data.
  • In Netherlands
  • List of Countries
  • For 7 days
  • Water Temperature
  • Satellite Maps
  • Weather Map
  • Weather Widgets
  • user-avatar
    Login

    Hourly Weather Krasnogvardeyskiy

    Today, 24 April, Wednesday

    Time Temperature Precipitation Wind Pressure Humidity
    00:00 +12°C° 0 mm 2 mps 755 mmHg 62%
    01:00 +10°C° 0 mm 2 mps 755 mmHg 64%
    02:00 +10°C° 0 mm 2 mps 755 mmHg 65%
    03:00 +9°C° 0 mm 2 mps 755 mmHg 65%
    04:00 +9°C° 0 mm 2 mps 756 mmHg 67%
    05:00 +9°C° 0 mm 2 mps 756 mmHg 68%
    06:00 +9°C° 0 mm 2 mps 756 mmHg 70%
    07:00 +12°C° 0 mm 2 mps 756 mmHg 64%
    08:00 +12°C° 0 mm 3 mps 756 mmHg 59%
    09:00 +14°C° 0 mm 3 mps 756 mmHg 53%
    10:00 +17°C° 0 mm 3 mps 756 mmHg 48%
    11:00 +18°C° 0 mm 3 mps 756 mmHg 43%
    12:00 +20°C° 0 mm 4 mps 756 mmHg 38%
    13:00 +21°C° 0 mm 4 mps 755 mmHg 37%
    14:00 +21°C° 0 mm 4 mps 755 mmHg 35%
    15:00 +22°C° 0 mm 4 mps 755 mmHg 34%
    16:00 +22°C° 0 mm 3 mps 755 mmHg 36%
    17:00 +21°C° 0 mm 3 mps 755 mmHg 38%
    18:00 +21°C° 0 mm 2 mps 755 mmHg 40%
    19:00 +19°C° 0 mm 2 mps 755 mmHg 44%
    20:00 +18°C° 0 mm 2 mps 755 mmHg 48%
    21:00 +16°C° 0 mm 2 mps 755 mmHg 52%
    22:00 +15°C° 0 mm 2 mps 755 mmHg 54%
    23:00 +15°C° 0 mm 2 mps 755 mmHg 56%

    Tomorrow, 25 April, Thursday

    Time Temperature Precipitation Wind Pressure Humidity
    00:00 +14°C° 0 mm 2 mps 755 mmHg 58%
    01:00 +14°C° 0 mm 2 mps 755 mmHg 60%
    02:00 +13°C° 0 mm 2 mps 755 mmHg 62%
    03:00 +13°C° 0 mm 2 mps 755 mmHg 64%
    04:00 +12°C° 0 mm 2 mps 755 mmHg 65%
    05:00 +12°C° 0 mm 2 mps 755 mmHg 67%
    06:00 +12°C° 0 mm 2 mps 755 mmHg 69%
    07:00 +14°C° 0 mm 2 mps 755 mmHg 63%
    08:00 +16°C° 0 mm 2 mps 755 mmHg 58%
    09:00 +18°C° 0 mm 2 mps 755 mmHg 52%
    10:00 +19°C° 0 mm 2 mps 755 mmHg 47%
    11:00 +21°C° 0 mm 3 mps 755 mmHg 43%
    12:00 +22°C° 0 mm 3 mps 755 mmHg 38%
    13:00 +22°C° 0 mm 3 mps 755 mmHg 37%
    14:00 +24°C° 0 mm 2 mps 754 mmHg 35%
    15:00 +24°C° 0 mm 2 mps 754 mmHg 34%
    16:00 +24°C° 0 mm 2 mps 754 mmHg 36%
    17:00 +23°C° 0 mm 2 mps 753 mmHg 39%
    18:00 +23°C° 0 mm 2 mps 753 mmHg 41%
    19:00 +22°C° 0 mm 1 mps 753 mmHg 43%
    20:00 +21°C° 0 mm 1 mps 753 mmHg 45%
    21:00 +20°C° 0 mm 1 mps 753 mmHg 47%
    22:00 +19°C° 0 mm 1 mps 753 mmHg 49%
    23:00 +17°C° 0 mm 0 mps 753 mmHg 50%

    Day after tomorrow, 26 April, Friday

    Time Temperature Precipitation Wind Pressure Humidity
    00:00 +16°C° 0 mm 0 mps 753 mmHg 51%
    01:00 +16°C° 0.1 mm 0 mps 753 mmHg 54%
    02:00 +16°C° 0.1 mm 1 mps 753 mmHg 56%
    03:00 +15°C° 0.1 mm 1 mps 753 mmHg 59%
    04:00 +15°C° 0.4 mm 1 mps 753 mmHg 62%
    05:00 +15°C° 0.4 mm 2 mps 753 mmHg 65%
    06:00 +14°C° 0.4 mm 2 mps 753 mmHg 68%
    07:00 +15°C° 0.3 mm 2 mps 753 mmHg 64%
    08:00 +16°C° 0.3 mm 3 mps 753 mmHg 61%
    09:00 +17°C° 0.3 mm 3 mps 753 mmHg 57%
    10:00 +19°C° 0 mm 3 mps 753 mmHg 53%
    11:00 +20°C° 0 mm 3 mps 752 mmHg 49%
    12:00 +21°C° 0 mm 3 mps 752 mmHg 45%
    13:00 +21°C° 0.2 mm 3 mps 752 mmHg 45%
    14:00 +23°C° 0.2 mm 2 mps 752 mmHg 45%
    15:00 +23°C° 0.2 mm 2 mps 751 mmHg 44%
    16:00 +21°C° 0.5 mm 2 mps 751 mmHg 48%
    17:00 +20°C° 0.5 mm 2 mps 751 mmHg 52%
    18:00 +21°C° 0.5 mm 1 mps 750 mmHg 57%
    19:00 +19°C° 0.2 mm 1 mps 750 mmHg 61%
    20:00 +18°C° 0.2 mm 1 mps 750 mmHg 66%
    21:00 +15°C° 0.2 mm 1 mps 750 mmHg 71%
    22:00 +15°C° 0 mm 1 mps 750 mmHg 71%
    23:00 +15°C° 0 mm 1 mps 750 mmHg 72%

    27 April, Saturday

    Time Temperature Precipitation Wind Pressure Humidity
    00:00 +14°C° 0 mm 1 mps 749 mmHg 72%
    01:00 +14°C° 0 mm 1 mps 749 mmHg 73%
    02:00 +14°C° 0 mm 1 mps 749 mmHg 73%
    03:00 +13°C° 0 mm 1 mps 749 mmHg 74%
    04:00 +13°C° 0 mm 2 mps 749 mmHg 74%
    05:00 +13°C° 0 mm 2 mps 748 mmHg 74%
    06:00 +14°C° 0 mm 2 mps 748 mmHg 74%
    07:00 +15°C° 0 mm 2 mps 748 mmHg 69%
    08:00 +17°C° 0 mm 3 mps 748 mmHg 64%
    09:00 +18°C° 0 mm 3 mps 747 mmHg 59%
    10:00 +19°C° 0 mm 4 mps 747 mmHg 53%
    11:00 +20°C° 0 mm 4 mps 747 mmHg 47%
    12:00 +21°C° 0 mm 4 mps 746 mmHg 41%
    13:00 +21°C° 0 mm 4 mps 746 mmHg 44%
    14:00 +21°C° 0 mm 3 mps 745 mmHg 47%
    15:00 +21°C° 0 mm 3 mps 745 mmHg 50%
    16:00 +20°C° 0.1 mm 3 mps 745 mmHg 52%
    17:00 +20°C° 0.1 mm 3 mps 744 mmHg 53%
    18:00 +19°C° 0.1 mm 4 mps 744 mmHg 55%
    19:00 +18°C° 0 mm 3 mps 744 mmHg 60%
    20:00 +16°C° 0 mm 3 mps 744 mmHg 66%
    21:00 +14°C° 0 mm 3 mps 744 mmHg 71%
    22:00 +15°C° 0.1 mm 2 mps 744 mmHg 73%
    23:00 +14°C° 0.1 mm 2 mps 743 mmHg 75%

    28 April, Sunday

    Time Temperature Precipitation Wind Pressure Humidity
    00:00 +14°C° 0.1 mm 2 mps 743 mmHg 77%
    01:00 +14°C° 0.2 mm 1 mps 743 mmHg 80%
    02:00 +13°C° 0.2 mm 1 mps 743 mmHg 82%
    03:00 +13°C° 0.2 mm 1 mps 743 mmHg 84%
    04:00 +13°C° 0.1 mm 1 mps 743 mmHg 86%
    05:00 +13°C° 0.1 mm 1 mps 743 mmHg 87%
    06:00 +13°C° 0.1 mm 1 mps 743 mmHg 89%
    07:00 +12°C° 0 mm 3 mps 743 mmHg 86%
    08:00 +12°C° 0 mm 4 mps 744 mmHg 83%
    09:00 +13°C° 0 mm 6 mps 744 mmHg 80%
    10:00 +13°C° 0 mm 6 mps 745 mmHg 74%
    11:00 +14°C° 0 mm 6 mps 745 mmHg 67%
    12:00 +15°C° 0 mm 7 mps 745 mmHg 61%
    13:00 +15°C° 0 mm 7 mps 746 mmHg 57%
    14:00 +15°C° 0 mm 6 mps 746 mmHg 53%
    15:00 +15°C° 0 mm 6 mps 746 mmHg 49%
    16:00 +14°C° 0 mm 6 mps 747 mmHg 48%
    17:00 +13°C° 0 mm 6 mps 747 mmHg 46%
    18:00 +11°C° 0 mm 6 mps 747 mmHg 44%
    19:00 +10°C° 0 mm 5 mps 748 mmHg 47%
    20:00 +8°C° 0 mm 5 mps 749 mmHg 49%
    21:00 +7°C° 0 mm 4 mps 749 mmHg 52%
    22:00 +6°C° 0 mm 4 mps 750 mmHg 54%
    23:00 +6°C° 0 mm 4 mps 750 mmHg 57%

    29 April, Monday

    Time Temperature Precipitation Wind Pressure Humidity
    00:00 +5°C° 0 mm 4 mps 751 mmHg 59%
    01:00 +4°C° 0 mm 4 mps 751 mmHg 60%
    02:00 +4°C° 0 mm 4 mps 751 mmHg 61%
    03:00 +3°C° 0 mm 3 mps 751 mmHg 62%
    04:00 +3°C° 0 mm 3 mps 752 mmHg 63%
    05:00 +2°C° 0 mm 3 mps 752 mmHg 64%
    06:00 +2°C° 0 mm 3 mps 752 mmHg 65%
    07:00 +4°C° 0 mm 3 mps 752 mmHg 59%
    08:00 +5°C° 0 mm 4 mps 753 mmHg 53%
    09:00 +7°C° 0 mm 4 mps 753 mmHg 47%
    10:00 +7°C° 0 mm 4 mps 753 mmHg 44%
    11:00 +8°C° 0 mm 4 mps 753 mmHg 40%
    12:00 +10°C° 0 mm 4 mps 753 mmHg 36%
    13:00 +10°C° 0 mm 3 mps 752 mmHg 35%
    14:00 +11°C° 0 mm 3 mps 752 mmHg 34%
    15:00 +11°C° 0 mm 3 mps 752 mmHg 33%
    16:00 +11°C° 0 mm 3 mps 752 mmHg 34%
    17:00 +12°C° 0 mm 2 mps 751 mmHg 35%
    18:00 +10°C° 0 mm 2 mps 751 mmHg 37%
    19:00 +10°C° 0 mm 2 mps 751 mmHg 39%
    20:00 +9°C° 0 mm 2 mps 751 mmHg 41%
    21:00 +8°C° 0 mm 2 mps 752 mmHg 43%
    22:00 +8°C° 0 mm 2 mps 752 mmHg 45%
    23:00 +8°C° 0 mm 1 mps 752 mmHg 47%
    Show more